Погода в Троицке

Погода в Троицке : погода сейчас, прогноз погоды и архив. Всё, что Вы хотите узнать о погоде в Троицке!

Хотите узнать прогноз погоды в Троицке? Тогда Вам сюда: Погода в Троицке

Поиск расширенной информации на нашем сайте:

Другие новости

Новости СМИ2

Главная страница сайта

Новости сайта

02.10.2013

Напоминаем, что на нашем новом сайте вы можете получить высокодетализированные прогнозы погоды по пунктам России, СНГ и мира (включающие важные для авиации метеовеличины, такие как направление и скорость ветра, видимость, явления погоды, количество и форма облачности, нижняя и верхняя граница облачности), а также ознакомиться с разнообразными материалами по авиационной метеорологии и подборкой полезных ссылок на эту тему.

Сайт Метеоцентр.Азия посвящён разработке технологий оптимизации авиаметеорологического обслуживания, включая проектирование и перспективное создание нескольких автоматизированных авиаметеорологических систем:
- система выпуска высокодетальных прогностических карт явлений погоды для нижнего воздушного пространства по России и ближнему зарубежью;
- система верификации прогнозов TAF (выпускаемых синоптиками официальных АМСГ РФ и ближнего зарубежья) и AUTOTAF (выпускаемых сайтом Метеоцентр.Азия) - выявление ошибок, онлайн-сопоставление с фактической погодой METAR, автоматическое внесение коррективов в прогнозы при резком отклонении фактической погоды от прогноза, подсчёт оправдываемости прогнозов по элементам и в целом;
- система обработки, анализа и отображения авиаметеорологической информации для применения провайдерами метеорологической информации.


Погода в Троицке - сегодня

Время (UTC), дата Ветер
(°,м/с) 
Видим.   Явления Облачность Т
(°С)
Тd
(°С)
f(%) Тe
(°С)
Pmin
(гПа)
dP
(гПа)
Po
(мм)
O2
(г/м3)
Тmin Tmax R s Состояние
почвы
03 24.03.17 160 (Ю) 2000 м  дымка  4/0 верхняя 
[Ci sp]
-14.3 -16.4 84 -14  1020.4  -0.9  746  319  -16.2      22  неравномерный
сухой снег
100% 
06 24.03.17 270 (З) 10 км    10/10 600 м 
[Sc]
-5.4 -10.2 69 -5  1018.8  -0.6  746  308           
09 24.03.17 300 (СЗ) 10 км    10/10 600 м 
[Sc]
+3 -4.8 56 +4  1016.6  -1.5  745  297           
12 24.03.17 260 (З) 10 км    10/10 600 м 
[Sc]
+2.4 -2.4 71 +1  1016.3  -0.3  744  298           
15 24.03.17 330 (СЗ) 10 км    10/10 600 м 
[Sc]
+1.8 -2 76 +1  1017.4  1.1  745  299    +3.5       
18 24.03.17 310 (СЗ) 10 км    10/10 600 м 
[Sc]
+1.3 -4.5 65 1018.4  0.9  746  300           
21 24.03.17 310 (СЗ) 10 км    10/10 600 м 
[Sc]
+0.6 -4.3 70 -1  1019.3  0.8  746  301           
00 25.03.17 250 (З) 10 км    ясно 
-1.9 -6.3 72 -4  1020.1  0.5  747  304           
03 25.03.17 250 (З) 10 км    10/8 600 м верхняя 
[Sc|Ci fib]
-3.4 -7.4 74 -5  1020.6  0.4  747  306  -4.3      21  неравномерный
сухой снег
100% 
06 25.03.17 170 (Ю) 10 км    10/0 верхняя 
[Cs]
-0.4 -6.2 65 -1  1020.1  -0.2  747  302           
09 25.03.17 190 (Ю) 10 км    10/0 верхняя 
[Cs]
+2.4 -4.3 61 1018.9  -0.9  746  299           
12 25.03.17 190 (Ю) 10 км    8/1 600 м верхняя 
[Cu hum|Ci sp]
+1.4 -4 67 -1  1017.6  -1.4  745  299           
15 25.03.17 210 (ЮЗ) 5{10}  10 км    10/10 600 м 
[Sc]
-0.3 -4.5 73 -3  1017  -0.7  745  301    +2.5       
18 25.03.17 150 (ЮВ) 3{10}  10 км    5/5 600 м 
[Sc]
-2.2 -5.5 78 -4  1016.2  -1  744  303           
21 25.03.17 180 (Ю) 10 км    10/10 600 м 
[Sc]
-0.8 -3.7 81 -3  1015.4  -0.6  744  301           
00 26.03.17 160 (Ю) 10 км    10/10 600 м 
[Sc]
-1.6 -3.8 85 -4  1014.1  -1.4  743  301           
03 26.03.17 180 (Ю) 4{10}  10 км    10/10 600 м 
[Sc]
-1.1 -3.3 85 -4  1012.5  -1.5  741  300  -2.7      20  неравномерный
мокрый или
старый снег
100% 
06 26.03.17 180 (Ю) 6{12}  4000 м  слаб. снег  10/0 средняя 
[As trans]
+0.6 -1.6 85 -3  1011.1  -1.2  740  298           
09 26.03.17 190 (Ю) 4{11}  10 км  {снег}  10/0 средняя 
[Ac und]
+1.9 -0.9 82 1010.3  -0.7  740  296           
12 26.03.17 210 (ЮЗ) 10 км  {снег}  8/0 верхняя 
[Cc]
+3.2 -0.7 76 +1  1008.7  -1.4  739  294           
15 26.03.17 220 (ЮЗ) 4{10}  10 км    6/0 верхняя 
[Ci fib]
+1.1 -1.9 80 -1  1008.5  -0.4  739  297    +3.7  0.0     
18 26.03.17 240 (ЮЗ) 10 км    ясно 
-1.2 -5.9 70 -4  1009.7  0.9  739  300           
21 26.03.17 250 (З) 10 км    ясно 
-4.4 -9.3 69 -8  1010.5  0.5  740  304           
00 27.03.17 240 (ЮЗ) 10 км    4/0 верхняя 
[Ci fib]
-5.5 -10.1 70 -8  1010.8  0.2  740  305           
03 27.03.17 220 (ЮЗ) 10 км    10/0 верхняя 
[Cs]
-6.4 -10.5 73 -8  1010.8  740  306  -7.7      17  мокрый или
старый снег
50-90% 
Время (UTC), дата Ветер
(°,м/с) 
Видим.   Явления Облачность Т
(°С)
Тd
(°С)
f(%) Тe
(°С)
Pmin
(гПа)
dP
(гПа)
Po
(мм)
O2
(г/м3)
Тmin Tmax R s Состояние
почвы

Для получения пояснительной информации подведите курсор к названию столбца.

ПОГОДА в Троицке - архив

Всё, что Вы хотите узнать о погоде в Троицке - удобно и подробно!

Выберите нужную дату (начиная с 1 января 2015* года) и нажмите кнопку "Найти".
Будут отображены архивные сводки погоды по пункту Троицк, начиная с указанной даты.


Отображать данные в формате CSV (для использования в таблицах Excel)


Внимание! Наш архив погоды предназначен исключительно для личного некоммерческого использования в познавательных целях. Если Вам необходимы официальные справки о состоянии погоды (для производственных, юридических, коммерческих и т.п. целей), обращайтесь в органы Росгидромета.

*Примечание: данная дата относится к архиву по метеостанциям СССР (Россия, СНГ, Балтия).
Архив по метеостанциям Зарубежной Европы и Азии (кроме Китая) хранится 10 дней, по другим регионам земного шара (Китай, Африка, Америка, Австралия, Океания) - 1 день.

Троицк - район местоположения метеостанции


Название, широта, долгота, высота метеостанции:
Троицк 54.1°ш. 61.6°д. 192 м над ур. моря [Российская Федерация]

Дополнительная информация

В oтличие oт бoльшинства пoгoдных сайтoв мы публикуем пoдрoбную метеoинфoрмацию в детальнoм прoфессиoнальнoм фoрмате.

Характеристики температуры и влажнoсти вoздуха измеряются на высoте 2 м в тени вдали oт зданий и деревьев.
Скoрoсть ветра измеряется на высoте 10 м (на урoвне рoста челoвека скoрoсть ветра ниже в 1.5-2 раза). Если метеoстанция нахoдится в гoрoде или в лесу, тo скoрoсть ветра занижена на 2-4 м/с пo сравнению с oткрытым местoм. Скoрoсть ветра над акватoриями крупных рек и oзёр, а также на вершинах хoлмoв на 2-5 м/с выше, чем в oбычных услoвиях.
Атмoсфернoе давление в разных тoчках местнoсти мoжет значительнo oтличаться oт давления на метеoстанции, в зависимoсти oт услoвий рельефа (при пoдъёме на 10 м давление пoнижается примернo на 1 мм рт.ст.).